Simultaneous Nadir Overpasses (SNOs) Predictions

Prediction of SNOs between AQUA and METOP-B Satellite Orbit:

Table of predicted SNOs for the next 14.0 days since TLE Epoch: 3/21/2015
Index Date (AQUA) Time (AQUA) Lat,Lon (AQUA) SZA (AQUA ) Date (METOP-B) Time (METOP-B) Lat,Lon (METOP-B) SZA (METOP-B ) Distance(km) Time Diff (sec)
1 03/23/2015 11:36:41 73.72, 0.47 72.75 03/23/2015 11:36:07 73.72, 0.40 72.77 2.14 34
2 03/23/2015 12:26:08 -73.80, 167.94 107.18 03/23/2015 12:26:47 -73.82, 167.96 107.16 2.64 39
3 03/26/2015 07:10:56 73.73, 66.89 71.65 03/26/2015 07:10:31 73.72, 66.80 71.65 2.88 25
4 03/26/2015 08:00:23 -73.81,-125.64 108.29 03/26/2015 08:01:11 -73.83,-125.63 108.27 2.30 48
5 03/29/2015 01:55:34 -73.27, -33.32 109.94 03/29/2015 01:54:25 -73.24, -35.23 109.89 61.27 69
6 03/29/2015 02:45:11 73.77, 133.25 70.58 03/29/2015 02:44:54 73.76, 133.29 70.58 1.28 17
7 03/29/2015 03:34:38 -73.84, -59.26 109.36 03/29/2015 03:35:35 -73.82, -59.24 109.39 1.75 57
8 03/31/2015 21:29:55 -73.63, 32.35 110.65 03/31/2015 21:28:42 -73.58, 31.93 110.68 14.79 73
9 03/31/2015 22:19:25 73.77,-160.31 69.49 03/31/2015 22:19:17 73.79,-160.23 69.50 3.25 8
10 03/31/2015 23:08:52 -73.84, 7.19 110.46 03/31/2015 23:09:58 -73.85, 7.24 110.46 2.57 66
11 04/03/2015 17:04:09 -73.71, 98.64 111.66 04/03/2015 17:03:02 -73.70, 98.62 111.66 1.21 67
12 04/03/2015 17:53:37 73.75, -93.82 68.37 04/03/2015 17:53:40 73.76, -93.90 68.39 2.72 3




NCC Satellite Simultaneous Nadir Overpasses (SNOs) Prediction Service
